World > North America > United States > Ohio > Southington  

Southington, OH Hourly Weather Conditions

Feedback E-mail the Weather

Quick WX

WeatherWX.com

Southington, OH Weather Maps

°F °C°F °C
Southington Weather Map
UTC Time: 9/24/2023, 17:34
Your Time:

Southington, OH Regional Weather

Expires:202309241800;;928412
ASUS41 KCLE 241712
RWRCLE
OHIO REGIONAL WEATHER ROUNDUP
NATIONAL WEATHER SERVICE WILMINGTON, OH
100 PM EDT SUN SEP 24 2023

NOTE: "FAIR" INDICATES FEW OR NO CLOUDS BELOW 12,000 FEET WITH NO
SIGNIFICANT WEATHER AND/OR OBSTRUCTIONS TO VISIBILITY.


OHZ009>014-019>023-028>033-038-089-241800-
   NORTHEAST OHIO
  
CITY           SKY/WX    TMP DP  RH WIND       PRES   REMARKS
CLE-HOPKINS    CLOUDY    67  57  70 N3        30.00F                  
CLE-LAKEFRONT  CLOUDY    69  59  70 NE12      30.00F                  
CUY CO. ARPT   CLOUDY    66  57  72 NE6       30.02F                  
LORAIN-ELYRIA  CLOUDY    67  58  72 NE9       30.03S                  
ASHTABULA      CLOUDY    66  56  70 N6        30.03S                  
AKRON-CANTON   CLOUDY    62  56  80 NE6       30.02S                  
WOOSTER        CLOUDY    65  56  72 N8        30.02F                  
MANSFIELD      CLOUDY    68  56  65 N7        30.02F                  
YOUNGSTOWN     CLOUDY    64  57  78 E7        30.02F                  
$$
 

SKY/WX - Weather  TMP - Temperature  DP - Dew Point  RH - Humidity
WIND - Wind Direction/Speed PRES - Barometric Pressure VSB - Visibility
WCI - Wind Chill Index E13G22 Wind - East Wind 13 mph/Gusts of 22 mph

Trending Headlines

Trending Entertainment Headlines

Southington Radar Loop

Use the map search tool if you want to place a location marker on the radar map...

Southington Quick Facts

National Two Day Weather Forecast


E-mail the Southington Weather Forecast

Voice your opinion or tell us about page issues...